When you browse on this site, cookies collect data to enhance your experience and personalize the content and advertising you see.
Visit our Privacy Policy to learn more. By continuing to use the site, you agree to this use of cookies and data.
  • In Spain
  • List of Countries
  • For 7 days
  • Water Temperature
  • Satellite Maps
  • Weather Map
  • Weather Widgets
  • user-avatar
    Login

    Hourly Weather Santa Cruz

    Today, 18 November, Sunday

    Time Temperature Precipitation Wind Pressure Humidity
    00:00 +28°C° 0 mm 4 mps 719 mmHg 74%
    01:00 +28°C° 0 mm 4 mps 719 mmHg 76%
    02:00 +27°C° 0 mm 4 mps 719 mmHg 78%
    03:00 +27°C° 0.1 mm 4 mps 719 mmHg 80%
    04:00 +27°C° 0.1 mm 4 mps 719 mmHg 82%
    05:00 +26°C° 0.1 mm 3 mps 719 mmHg 84%
    06:00 +28°C° 0 mm 4 mps 719 mmHg 78%
    07:00 +29°C° 0 mm 4 mps 720 mmHg 73%
    08:00 +30°C° 0 mm 4 mps 721 mmHg 68%
    09:00 +33°C° 0 mm 5 mps 721 mmHg 60%
    10:00 +35°C° 0 mm 5 mps 721 mmHg 52%
    11:00 +37°C° 0 mm 5 mps 721 mmHg 44%
    12:00 +37°C° 0.1 mm 4 mps 721 mmHg 43%
    13:00 +38°C° 0.1 mm 4 mps 720 mmHg 42%
    14:00 +38°C° 0.1 mm 3 mps 720 mmHg 41%
    15:00 +35°C° 2.8 mm 4 mps 720 mmHg 55%
    16:00 +30°C° 2.8 mm 4 mps 720 mmHg 69%
    17:00 +27°C° 2.8 mm 4 mps 720 mmHg 83%
    18:00 +26°C° 2 mm 3 mps 721 mmHg 86%
    19:00 +25°C° 2 mm 3 mps 721 mmHg 89%
    20:00 +24°C° 2 mm 3 mps 722 mmHg 92%
    21:00 +24°C° 1 mm 3 mps 723 mmHg 92%
    22:00 +24°C° 1 mm 3 mps 723 mmHg 93%
    23:00 +22°C° 1 mm 3 mps 724 mmHg 93%

    Tomorrow, 19 November, Monday

    Time Temperature Precipitation Wind Pressure Humidity
    00:00 +22°C° 1.5 mm 3 mps 723 mmHg 93%
    01:00 +22°C° 1.5 mm 3 mps 723 mmHg 93%
    02:00 +21°C° 1.5 mm 3 mps 723 mmHg 93%
    03:00 +21°C° 1.5 mm 4 mps 723 mmHg 93%
    04:00 +21°C° 1.5 mm 4 mps 723 mmHg 93%
    05:00 +21°C° 1.5 mm 4 mps 723 mmHg 93%
    06:00 +21°C° 1.4 mm 4 mps 723 mmHg 93%
    07:00 +21°C° 1.4 mm 3 mps 724 mmHg 93%
    08:00 +21°C° 1.4 mm 3 mps 724 mmHg 93%
    09:00 +21°C° 1.4 mm 3 mps 724 mmHg 93%
    10:00 +21°C° 1.4 mm 2 mps 724 mmHg 92%
    11:00 +23°C° 1.4 mm 2 mps 725 mmHg 92%
    12:00 +23°C° 0.7 mm 2 mps 724 mmHg 91%
    13:00 +23°C° 0.7 mm 1 mps 723 mmHg 89%
    14:00 +24°C° 0.7 mm 1 mps 722 mmHg 88%
    15:00 +25°C° 0 mm 1 mps 722 mmHg 82%
    16:00 +26°C° 0 mm 1 mps 721 mmHg 77%
    17:00 +27°C° 0 mm 1 mps 721 mmHg 71%
    18:00 +24°C° 0 mm 0 mps 721 mmHg 76%
    19:00 +22°C° 0 mm 0 mps 722 mmHg 81%
    20:00 +21°C° 0 mm 0 mps 722 mmHg 86%
    21:00 +21°C° 0 mm 0 mps 722 mmHg 87%
    22:00 +21°C° 0 mm 0 mps 723 mmHg 88%
    23:00 +21°C° 0 mm 0 mps 723 mmHg 89%

    Day after tomorrow, 20 November, Tuesday

    Time Temperature Precipitation Wind Pressure Humidity
    00:00 +21°C° 0 mm 0 mps 723 mmHg 88%
    01:00 +21°C° 0 mm 0 mps 722 mmHg 88%
    02:00 +23°C° 0 mm 1 mps 722 mmHg 87%
    03:00 +21°C° 0 mm 0 mps 722 mmHg 87%
    04:00 +21°C° 0 mm 0 mps 722 mmHg 87%
    05:00 +20°C° 0 mm 0 mps 721 mmHg 88%
    06:00 +22°C° 0 mm 0 mps 722 mmHg 80%
    07:00 +24°C° 0 mm 0 mps 723 mmHg 72%
    08:00 +27°C° 0 mm 0 mps 723 mmHg 64%
    09:00 +29°C° 0 mm 0 mps 723 mmHg 57%
    10:00 +33°C° 0 mm 1 mps 723 mmHg 50%
    11:00 +35°C° 0 mm 1 mps 723 mmHg 44%
    12:00 +35°C° 0 mm 1 mps 722 mmHg 43%
    13:00 +36°C° 0 mm 1 mps 722 mmHg 42%
    14:00 +36°C° 0 mm 1 mps 721 mmHg 42%
    15:00 +35°C° 0 mm 1 mps 720 mmHg 44%
    16:00 +34°C° 0 mm 1 mps 720 mmHg 46%
    17:00 +34°C° 0 mm 1 mps 719 mmHg 48%
    18:00 +32°C° 0 mm 1 mps 720 mmHg 54%
    19:00 +30°C° 0 mm 1 mps 720 mmHg 61%
    20:00 +28°C° 0 mm 1 mps 721 mmHg 67%
    21:00 +27°C° 0.2 mm 1 mps 721 mmHg 70%
    22:00 +25°C° 0.2 mm 0 mps 722 mmHg 73%
    23:00 +24°C° 0.2 mm 0 mps 722 mmHg 77%

    21 November, Wednesday

    Time Temperature Precipitation Wind Pressure Humidity
    00:00 +24°C° 0.6 mm 0 mps 722 mmHg 81%
    01:00 +25°C° 0.6 mm 1 mps 721 mmHg 85%
    02:00 +24°C° 0.6 mm 1 mps 721 mmHg 89%
    03:00 +24°C° 0.1 mm 1 mps 721 mmHg 89%
    04:00 +24°C° 0.1 mm 1 mps 721 mmHg 90%
    05:00 +24°C° 0.1 mm 1 mps 721 mmHg 90%
    06:00 +26°C° 0 mm 1 mps 721 mmHg 83%
    07:00 +26°C° 0 mm 0 mps 722 mmHg 77%
    08:00 +27°C° 0 mm 0 mps 723 mmHg 70%
    09:00 +31°C° 0 mm 1 mps 722 mmHg 62%
    10:00 +33°C° 0 mm 1 mps 722 mmHg 54%
    11:00 +35°C° 0 mm 1 mps 722 mmHg 46%
    12:00 +37°C° 0 mm 2 mps 721 mmHg 44%
    13:00 +37°C° 0 mm 2 mps 720 mmHg 42%
    14:00 +38°C° 0 mm 2 mps 719 mmHg 40%
    15:00 +37°C° 0 mm 2 mps 718 mmHg 42%
    16:00 +37°C° 0 mm 2 mps 718 mmHg 44%
    17:00 +36°C° 0 mm 2 mps 717 mmHg 47%
    18:00 +34°C° 0 mm 2 mps 718 mmHg 53%
    19:00 +31°C° 0 mm 1 mps 718 mmHg 59%
    20:00 +29°C° 0 mm 1 mps 719 mmHg 65%
    21:00 +29°C° 0 mm 1 mps 719 mmHg 68%
    22:00 +28°C° 0 mm 1 mps 719 mmHg 70%
    23:00 +28°C° 0 mm 1 mps 720 mmHg 72%

    22 November, Thursday

    Time Temperature Precipitation Wind Pressure Humidity
    00:00 +27°C° 0.8 mm 1 mps 719 mmHg 77%
    01:00 +26°C° 0.8 mm 1 mps 719 mmHg 83%
    02:00 +25°C° 0.8 mm 1 mps 718 mmHg 89%
    03:00 +25°C° 0 mm 1 mps 718 mmHg 89%
    04:00 +25°C° 0 mm 1 mps 718 mmHg 90%
    05:00 +25°C° 0 mm 2 mps 718 mmHg 90%
    06:00 +26°C° 0 mm 2 mps 719 mmHg 85%
    07:00 +28°C° 0 mm 2 mps 719 mmHg 79%
    08:00 +29°C° 0 mm 3 mps 720 mmHg 74%
    09:00 +31°C° 0 mm 3 mps 720 mmHg 66%
    10:00 +34°C° 0 mm 4 mps 719 mmHg 58%
    11:00 +36°C° 0 mm 5 mps 719 mmHg 50%
    12:00 +36°C° 0 mm 5 mps 718 mmHg 49%
    13:00 +36°C° 0 mm 5 mps 718 mmHg 47%
    14:00 +37°C° 0 mm 5 mps 717 mmHg 46%
    15:00 +37°C° 0 mm 4 mps 717 mmHg 47%
    16:00 +36°C° 0 mm 4 mps 717 mmHg 48%
    17:00 +36°C° 0 mm 3 mps 716 mmHg 49%
    18:00 +34°C° 0 mm 3 mps 717 mmHg 53%
    19:00 +33°C° 0 mm 3 mps 717 mmHg 57%
    20:00 +30°C° 0 mm 2 mps 718 mmHg 62%
    21:00 +30°C° 0 mm 2 mps 718 mmHg 66%
    22:00 +29°C° 0 mm 3 mps 718 mmHg 71%
    23:00 +28°C° 0 mm 3 mps 718 mmHg 76%

    23 November, Friday

    Time Temperature Precipitation Wind Pressure Humidity
    00:00 +27°C° 0.7 mm 2 mps 718 mmHg 81%
    01:00 +26°C° 0.7 mm 2 mps 718 mmHg 86%
    02:00 +25°C° 0.7 mm 2 mps 717 mmHg 92%
    03:00 +25°C° 3.4 mm 2 mps 718 mmHg 93%
    04:00 +25°C° 3.4 mm 1 mps 718 mmHg 95%
    05:00 +25°C° 3.4 mm 1 mps 719 mmHg 97%
    06:00 +25°C° 5.5 mm 1 mps 719 mmHg 95%
    07:00 +25°C° 5.5 mm 2 mps 720 mmHg 94%
    08:00 +25°C° 5.5 mm 2 mps 721 mmHg 93%
    09:00 +26°C° 2.2 mm 2 mps 721 mmHg 89%
    10:00 +26°C° 2.2 mm 2 mps 721 mmHg 85%
    11:00 +27°C° 2.2 mm 2 mps 721 mmHg 80%
    12:00 +27°C° 0.6 mm 3 mps 720 mmHg 78%
    13:00 +27°C° 0.6 mm 4 mps 720 mmHg 76%
    14:00 +27°C° 0.6 mm 4 mps 720 mmHg 74%
    15:00 +27°C° 0 mm 4 mps 719 mmHg 72%
    16:00 +27°C° 0 mm 4 mps 719 mmHg 71%
    17:00 +27°C° 0 mm 4 mps 719 mmHg 69%
    18:00 +26°C° 0 mm 3 mps 719 mmHg 72%
    19:00 +25°C° 0 mm 2 mps 720 mmHg 75%
    20:00 +24°C° 0 mm 2 mps 720 mmHg 77%
    21:00 +24°C° 0 mm 2 mps 720 mmHg 77%
    22:00 +24°C° 0 mm 2 mps 720 mmHg 77%
    23:00 +24°C° 0 mm 2 mps 721 mmHg 77%
    Show more